Flag for U.S.A. Weather past 2 weeks in Leesburg, Virginia, U.S.A.

36 °F


Feels Like: 36 °F
Forecast: 28 / 54 °F
Wind: No wind

Location: Leesburg / Godfrey

Current Time: Nov 24, 2015 at 9:49:35 PM

Latest Report: Nov 24, 2015 at 9:15 PM

Visibility: 10 mi

Pressure: 30.49 "Hg

Humidity: 87%

Dew point: 32 °F

Location of LeesburgLocation

Historic Weather in Leesburg — Graph


Leesburg temperature yesterday

Maximum temperature yesterday: 43 °F (at 2:35 PM)
Minimum temperature yesterday: 30 °F (at 5:35 AM)
Average temperature yesterday: 35 °F

Past Weeks' High & Low Weather Summary

High68 °F (Nov 15, 2:35 PM)100% (Nov 9, 8:15 PM)30.48 "Hg (Nov 9, 8:15 PM)
Low30 °F (Nov 21, 5:35 AM)26% (Nov 20, 4:15 PM)29.60 "Hg (Nov 12, 4:55 PM)
Average50 °F71%30.14 "Hg
* Reported Nov 9 8:15 PM — Nov 24 8:35 PM, Leesburg, Weather by CustomWeather, © 2015

Note: Actual official high and low records may vary slightly from our data, if they occured in-between our weather recording intervals... More about our weather records


Leesburg weather history for previous 24 hours

Time TempWeatherWind HumidityBarometerVisibility
8:35 PM
Tue, Nov 24
36 °FClear.3 mph93%30.48 "Hg10 mi
8:15 PM37 °FClear.No wind81%30.48 "Hg10 mi
7:35 PM43 °FClear.3 mph66%30.46 "Hg10 mi
7:15 PM41 °FClear.5 mph70%30.45 "Hg10 mi
6:35 PM43 °FClear.No wind66%30.44 "Hg10 mi
6:15 PM45 °FClear.No wind61%30.43 "Hg10 mi
5:55 PM46 °FClear.5 mph57%30.42 "Hg10 mi
4:55 PM50 °FClear.5 mph50%30.39 "Hg10 mi
4:15 PM52 °FSunny.N/A47%30.37 "Hg10 mi
3:55 PM52 °FSunny.8 mph47%30.37 "Hg10 mi
3:35 PM52 °FSunny.5 mph50%30.36 "Hg10 mi
3:15 PM52 °FSunny.7 mph50%30.36 "Hg10 mi
2:55 PM52 °FScattered clouds.7 mph50%30.36 "Hg10 mi
2:15 PM54 °FPartly sunny.9 mph47%30.35 "Hg10 mi
1:55 PM52 °FPartly sunny.7 mph50%30.35 "Hg10 mi
1:15 PM54 °FScattered clouds.10 mph51%30.35 "Hg10 mi
12:55 PM54 °FPartly sunny.16 mph47%30.35 "Hg10 mi
12:15 PM54 °FScattered clouds.10 mph47%30.36 "Hg10 mi
11:55 AM52 °FScattered clouds.12 mph50%30.37 "Hg10 mi
11:35 AM52 °FPartly sunny.7 mph47%30.37 "Hg10 mi
11:15 AM52 °FOvercast.10 mph47%30.38 "Hg10 mi
10:55 AM52 °FOvercast.9 mph47%30.38 "Hg10 mi
10:35 AM50 °FPartly sunny.9 mph50%30.39 "Hg10 mi
10:15 AM48 °FSunny.9 mph50%30.39 "Hg10 mi
9:55 AM46 °FSunny.7 mph53%30.38 "Hg10 mi
9:35 AM45 °FSunny.5 mph53%30.37 "Hg10 mi
9:15 AM43 °FScattered clouds.6 mph57%30.36 "Hg10 mi
8:55 AM39 °FPartly sunny.5 mph70%30.36 "Hg10 mi
8:35 AM36 °FOvercast.No wind75%30.36 "Hg10 mi
8:15 AM36 °FOvercast.No wind75%30.36 "Hg10 mi
7:55 AM34 °FOvercast.No wind81%30.35 "Hg10 mi
7:15 AM34 °FOvercast.No wind75%30.33 "Hg10 mi
6:55 AM34 °FOvercast.No wind75%30.33 "Hg10 mi
6:15 AM34 °FOvercast.No wind75%30.32 "Hg10 mi
5:55 AM34 °FOvercast.3 mph75%30.31 "Hg10 mi
5:35 AM34 °FOvercast.No wind75%30.31 "Hg10 mi
5:15 AM34 °FOvercast.No wind75%30.30 "Hg10 mi
4:55 AM34 °FOvercast.3 mph75%30.29 "Hg10 mi
4:35 AM34 °FOvercast.3 mph75%30.29 "Hg10 mi
4:15 AM34 °FOvercast.No wind81%30.28 "Hg10 mi
3:55 AM34 °FOvercast.No wind70%30.28 "Hg10 mi
3:15 AM34 °FOvercast.No wind65%30.27 "Hg10 mi
2:55 AM34 °FOvercast.5 mph65%30.27 "Hg10 mi
1:55 AM34 °FOvercast.No wind70%30.27 "Hg10 mi
1:15 AM36 °FMostly cloudy.6 mph60%30.26 "Hg10 mi
12:55 AM36 °FOvercast.7 mph60%30.26 "Hg10 mi
12:35 AM36 °FOvercast.7 mph60%30.27 "Hg10 mi
12:15 AM36 °FOvercast.7 mph65%30.27 "Hg10 mi
11:55 PM
Mon, Nov 23
36 °FOvercast.3 mph65%30.28 "Hg10 mi
11:15 PM34 °FOvercast.5 mph75%30.27 "Hg10 mi
10:55 PM34 °FOvercast.3 mph75%30.28 "Hg10 mi
9:55 PM34 °FMostly cloudy.No wind75%30.28 "Hg10 mi
9:35 PM34 °FMostly cloudy.No wind70%30.27 "Hg10 mi
9:15 PM32 °FMostly cloudy.3 mph80%30.27 "Hg10 mi
Weather by CustomWeather, © 2015

See weather overviewHow to use our weather pages